BON48Y VHHH-VIDP

Flight info

Callsign BON48Y
Flight time N/A
Altitude 38000
Route PECAN V10 SIKOU/K0900S1160 R339 BSE A599 MEPAN/K0896S1220 A599 LXI W148 XSJ W146 GULOT A599 LINSO/N0484F400 A599 LSO A201 RAJ G463 TEBID A201 BIKIK G463 MONDA A201 PPT J71 KEVOD Z2 JAL JAL6G
Aircraft B77L/H-SDE1E2E3FGHIJ2J3J4J5M1RWXY/LB1D1

Departure

Time N/A
Airport Hong Kong International Airport (VHHH)

Arrival

Time 2026-05-05 19:37
Airport Indira Gandhi International Airport (VIDP)
Time Latitude Longitude Altitude Speed Heading
2026-05-05 18:51 27.31064 81.45758 39834 ft 429 kts 281°
2026-05-05 18:51 27.32466 81.39245 39846 ft 428 kts 281°
2026-05-05 18:52 27.33864 81.32734 39842 ft 428 kts 281°
2026-05-05 18:52 27.35249 81.26269 39835 ft 428 kts 282°
2026-05-05 18:53 27.36637 81.19774 39843 ft 428 kts 282°
2026-05-05 18:53 27.38027 81.13255 39835 ft 429 kts 282°
2026-05-05 18:54 27.39414 81.06732 39837 ft 429 kts 282°
2026-05-05 18:54 27.40801 81.00197 39843 ft 429 kts 282°
2026-05-05 18:55 27.42185 80.93656 39840 ft 429 kts 281°
2026-05-05 18:55 27.43566 80.87116 39844 ft 429 kts 282°
2026-05-05 18:56 27.44942 80.80580 39840 ft 429 kts 282°
2026-05-05 18:56 27.46317 80.74034 39843 ft 429 kts 282°
2026-05-05 18:57 27.47689 80.67486 39852 ft 430 kts 282°
2026-05-05 18:57 27.49057 80.60945 39845 ft 429 kts 282°
2026-05-05 18:58 27.50421 80.54408 39847 ft 429 kts 282°
2026-05-05 18:58 27.51820 80.47886 39845 ft 428 kts 282°
2026-05-05 18:59 27.53239 80.41378 39842 ft 427 kts 282°
2026-05-05 18:59 27.54648 80.34879 39842 ft 427 kts 282°
2026-05-05 19:00 27.56016 80.28539 39841 ft 427 kts 282°
2026-05-05 19:00 27.57395 80.22123 39842 ft 427 kts 282°
2026-05-05 19:01 27.58788 80.15622 39839 ft 427 kts 282°
2026-05-05 19:01 27.60170 80.09162 39845 ft 427 kts 282°
2026-05-05 19:02 27.61558 80.02658 39843 ft 427 kts 282°
2026-05-05 19:02 27.62944 79.96145 39840 ft 427 kts 282°
2026-05-05 19:03 27.64328 79.89627 39843 ft 428 kts 282°
2026-05-05 19:03 27.65708 79.83112 39842 ft 428 kts 282°
2026-05-05 19:04 27.67078 79.76627 39839 ft 428 kts 282°
2026-05-05 19:04 27.68444 79.70153 39799 ft 418 kts 282°
2026-05-05 19:05 27.69975 79.63984 39684 ft 400 kts 288°
2026-05-05 19:05 27.72062 79.58310 39565 ft 383 kts 290°
2026-05-05 19:06 27.74073 79.52890 39451 ft 366 kts 290°
2026-05-05 19:06 27.75992 79.47680 39185 ft 355 kts 289°
2026-05-05 19:07 27.76934 79.45114 38953 ft 352 kts 289°
2026-05-05 19:07 27.77555 79.43420 38795 ft 351 kts 289°
2026-05-05 19:07 27.78797 79.40025 38479 ft 348 kts 289°
2026-05-05 19:07 27.79716 79.37511 38187 ft 346 kts 289°
2026-05-05 19:08 27.80632 79.35004 37872 ft 344 kts 289°
2026-05-05 19:08 27.81542 79.32514 37584 ft 342 kts 289°
2026-05-05 19:08 27.82447 79.30035 37311 ft 340 kts 289°
2026-05-05 19:08 27.83346 79.27572 37046 ft 338 kts 289°
2026-05-05 19:09 27.84241 79.25115 36771 ft 337 kts 289°
2026-05-05 19:09 27.85129 79.22678 36504 ft 335 kts 289°
2026-05-05 19:09 27.86014 79.20249 36240 ft 333 kts 289°
2026-05-05 19:09 27.86890 79.17843 35983 ft 331 kts 289°
2026-05-05 19:10 27.87767 79.15430 35730 ft 329 kts 289°
2026-05-05 19:10 27.88634 79.13046 35485 ft 328 kts 289°
2026-05-05 19:10 27.89499 79.10663 35209 ft 327 kts 289°
2026-05-05 19:10 27.90355 79.08306 34890 ft 328 kts 289°
2026-05-05 19:11 27.91223 79.05910 34553 ft 330 kts 289°
2026-05-05 19:11 27.91799 79.04321 34335 ft 330 kts 289°
2026-05-05 19:11 27.92963 79.01107 33940 ft 331 kts 289°
2026-05-05 19:11 27.93833 78.98705 33576 ft 332 kts 289°
2026-05-05 19:12 27.94416 78.97092 33304 ft 333 kts 289°
2026-05-05 19:12 27.95296 78.94659 32881 ft 336 kts 289°
2026-05-05 19:12 27.96185 78.92198 32462 ft 339 kts 289°
2026-05-05 19:12 27.97081 78.89718 32056 ft 341 kts 289°
2026-05-05 19:13 27.97982 78.87222 31659 ft 344 kts 289°
2026-05-05 19:13 27.98883 78.84723 31263 ft 346 kts 289°
2026-05-05 19:13 27.99797 78.82190 30869 ft 349 kts 289°
2026-05-05 19:13 28.00715 78.79641 30475 ft 351 kts 290°
2026-05-05 19:14 28.01639 78.77074 30089 ft 354 kts 290°
2026-05-05 19:14 28.02570 78.74488 29654 ft 356 kts 290°
2026-05-05 19:14 28.03506 78.71882 29223 ft 357 kts 290°
2026-05-05 19:14 28.04443 78.69275 28831 ft 358 kts 290°
2026-05-05 19:15 28.05381 78.66664 28406 ft 358 kts 290°
2026-05-05 19:15 28.06316 78.64059 27979 ft 360 kts 290°
2026-05-05 19:15 28.07294 78.61455 27551 ft 361 kts 295°
2026-05-05 19:15 28.08657 78.59057 27247 ft 364 kts 306°
2026-05-05 19:16 28.10355 78.56829 27270 ft 385 kts 309°
2026-05-05 19:16 28.12226 78.54543 27277 ft 406 kts 310°
2026-05-05 19:16 28.14211 78.52157 27280 ft 425 kts 311°
2026-05-05 19:16 28.16280 78.49673 27272 ft 438 kts 311°
2026-05-05 19:17 28.18380 78.47156 27285 ft 440 kts 311°
2026-05-05 19:17 28.20483 78.44638 27265 ft 439 kts 311°
2026-05-05 19:17 28.22610 78.42160 27259 ft 438 kts 314°
2026-05-05 19:17 28.24994 78.39998 27264 ft 440 kts 321°
2026-05-05 19:18 28.27455 78.37950 27267 ft 439 kts 320°
2026-05-05 19:18 28.29841 78.35795 27261 ft 437 kts 316°
2026-05-05 19:18 28.31985 78.33371 27258 ft 435 kts 309°
2026-05-05 19:18 28.33856 78.30670 27266 ft 434 kts 303°
2026-05-05 19:19 28.35493 78.27796 27269 ft 433 kts 299°
2026-05-05 19:19 28.36980 78.24827 27266 ft 433 kts 297°
2026-05-05 19:19 28.38346 78.21919 26583 ft 411 kts 296°
2026-05-05 19:19 28.39638 78.19083 25628 ft 404 kts 296°
2026-05-05 19:20 28.40914 78.16254 25736 ft 409 kts 296°
2026-05-05 19:20 28.42261 78.13271 25756 ft 428 kts 296°
2026-05-05 19:20 28.43623 78.10280 25573 ft 435 kts 296°
2026-05-05 19:20 28.45024 78.07225 24945 ft 434 kts 296°
2026-05-05 19:21 28.46410 78.04217 24506 ft 428 kts 296°
2026-05-05 19:21 28.47793 78.01224 24037 ft 425 kts 296°
2026-05-05 19:21 28.49167 77.98249 23598 ft 424 kts 296°
2026-05-05 19:21 28.50535 77.95287 23099 ft 422 kts 297°
2026-05-05 19:22 28.51897 77.92331 22572 ft 421 kts 297°
2026-05-05 19:22 28.53250 77.89393 22055 ft 419 kts 297°
2026-05-05 19:22 28.54598 77.86464 21553 ft 417 kts 297°
2026-05-05 19:22 28.55936 77.83556 21051 ft 414 kts 297°
2026-05-05 19:23 28.57262 77.80670 20549 ft 411 kts 297°
2026-05-05 19:23 28.58585 77.77789 20068 ft 408 kts 298°
2026-05-05 19:23 28.59883 77.74959 19601 ft 405 kts 298°
2026-05-05 19:23 28.61179 77.72133 19130 ft 402 kts 298°
2026-05-05 19:24 28.62379 77.69291 18565 ft 391 kts 293°
2026-05-05 19:24 28.63186 77.66389 17563 ft 380 kts 285°
2026-05-05 19:24 28.63681 77.63456 16481 ft 372 kts 280°
2026-05-05 19:24 28.63922 77.60579 15666 ft 359 kts 276°
2026-05-05 19:25 28.64088 77.57792 14987 ft 348 kts 276°
2026-05-05 19:25 28.64257 77.55032 14403 ft 355 kts 276°
2026-05-05 19:25 28.64437 77.52163 13768 ft 371 kts 276°
2026-05-05 19:25 28.64622 77.49213 13057 ft 376 kts 276°
2026-05-05 19:26 28.64807 77.46255 12383 ft 373 kts 276°
2026-05-05 19:26 28.64988 77.43328 11735 ft 368 kts 276°
2026-05-05 19:26 28.65167 77.40442 11278 ft 359 kts 276°
2026-05-05 19:26 28.65337 77.37676 11126 ft 342 kts 276°
2026-05-05 19:27 28.65499 77.35036 10979 ft 327 kts 276°
2026-05-05 19:27 28.65655 77.32522 10841 ft 313 kts 276°
2026-05-05 19:27 28.65805 77.30089 10703 ft 300 kts 276°
2026-05-05 19:27 28.65948 77.27776 10575 ft 287 kts 276°
2026-05-05 19:28 28.66087 77.25528 10251 ft 283 kts 276°
2026-05-05 19:28 28.66222 77.23343 10023 ft 275 kts 276°
2026-05-05 19:28 28.66352 77.21216 9881 ft 264 kts 276°
2026-05-05 19:28 28.66479 77.19141 9559 ft 261 kts 276°
2026-05-05 19:29 28.66606 77.17088 9256 ft 263 kts 276°
2026-05-05 19:29 28.66736 77.14987 8942 ft 269 kts 276°
2026-05-05 19:29 28.66867 77.12850 8644 ft 268 kts 276°
2026-05-05 19:29 28.66990 77.10789 7903 ft 261 kts 276°
2026-05-05 19:30 28.67115 77.08731 6958 ft 261 kts 276°
2026-05-05 19:30 28.67238 77.06677 6095 ft 259 kts 276°
2026-05-05 19:30 28.67361 77.04642 5192 ft 257 kts 275°
2026-05-05 19:30 28.67485 77.02593 4405 ft 265 kts 275°
2026-05-05 19:31 28.67609 77.00518 4001 ft 263 kts 274°
2026-05-05 19:31 28.67588 76.98480 3503 ft 257 kts 257°
2026-05-05 19:31 28.66835 76.96650 3044 ft 251 kts 235°
2026-05-05 19:31 28.65840 76.95126 2801 ft 228 kts 232°
2026-05-05 19:32 28.64917 76.93773 2702 ft 207 kts 231°
2026-05-05 19:32 28.63980 76.92583 2616 ft 200 kts 214°
2026-05-05 19:32 28.62704 76.92000 2628 ft 200 kts 195°
2026-05-05 19:32 28.61384 76.91549 2593 ft 195 kts 195°
2026-05-05 19:33 28.60110 76.91419 2573 ft 180 kts 163°
2026-05-05 19:33 28.59080 76.92167 2608 ft 177 kts 135°
2026-05-05 19:33 28.58226 76.93170 2617 ft 175 kts 126°
2026-05-05 19:33 28.57753 76.94429 2616 ft 174 kts 108°
2026-05-05 19:34 28.57389 76.95774 2611 ft 180 kts 106°
2026-05-05 19:34 28.57075 76.97156 2546 ft 182 kts 104°
2026-05-05 19:34 28.56781 76.98529 2293 ft 172 kts 104°
2026-05-05 19:35 28.56276 77.00898 1915 ft 144 kts 104°
2026-05-05 19:35 28.56039 77.02010 1724 ft 145 kts 104°
2026-05-05 19:35 28.55803 77.03115 1535 ft 144 kts 103°
2026-05-05 19:35 28.55574 77.04227 1322 ft 145 kts 103°
2026-05-05 19:36 28.55338 77.05342 1140 ft 145 kts 104°
2026-05-05 19:36 28.55100 77.06465 945 ft 147 kts 103°
2026-05-05 19:36 28.54851 77.07589 785 ft 147 kts 104°
2026-05-05 19:36 28.54622 77.08649 757 ft 126 kts 103°
2026-05-05 19:37 28.54449 77.09452 752 ft 83 kts 104°
2026-05-05 19:37 28.54385 77.09898 753 ft 36 kts 83°
2026-05-05 19:37 28.54431 77.10101 752 ft 16 kts 59°
2026-05-05 19:37 28.54502 77.10081 752 ft 12 kts 294°
2026-05-05 19:38 28.54527 77.09987 752 ft 13 kts 284°
2026-05-05 19:38 28.54550 77.09880 753 ft 15 kts 284°
2026-05-05 19:38 28.54577 77.09762 752 ft 16 kts 285°
2026-05-05 19:38 28.54608 77.09636 752 ft 18 kts 285°
2026-05-05 19:39 28.54655 77.09434 753 ft 24 kts 284°
2026-05-05 19:39 28.54697 77.09243 752 ft 25 kts 284°
2026-05-05 19:39 28.54742 77.09050 752 ft 25 kts 285°
2026-05-05 19:39 28.54786 77.08857 752 ft 25 kts 284°
2026-05-05 19:40 28.54831 77.08663 751 ft 25 kts 284°
2026-05-05 19:40 28.54875 77.08471 754 ft 25 kts 284°
2026-05-05 19:40 28.54920 77.08277 754 ft 25 kts 284°
2026-05-05 19:40 28.54963 77.08087 753 ft 25 kts 284°
2026-05-05 19:41 28.55009 77.07904 755 ft 16 kts 301°
2026-05-05 19:41 28.55113 77.07886 753 ft 17 kts 12°
2026-05-05 19:41 28.55210 77.07957 750 ft 17 kts 54°
2026-05-05 19:41 28.55265 77.08059 750 ft 12 kts 44°
2026-05-05 19:42 28.55333 77.08126 751 ft 13 kts 41°
2026-05-05 19:42 28.55380 77.08167 751 ft 9 kts 24°
2026-05-05 19:42 28.55442 77.08152 751 ft 10 kts 332°
2026-05-05 19:42 28.55459 77.08140 751 ft 0 kts 328°
2026-05-05 19:43 28.55460 77.08140 750 ft 0 kts 328°